[[{"header":{"parameterUnit":"m.s-1","parameterCategory":1,"la1":30.2992,"la2":30.254,"lo1":-89.0895,"lo2":-89.0443,"dy":0.0025,"dx":0.0025,"nx":19,"ny":19,"refTime":"2026-03-27T03:00:00:Z","depth":0,"parameterNumber":2,"parameterNumberName":"U-component_of_WINDS"},"data":[0,0,0,-2.0773,-2.0773,-2.0772,-2.0772,-2.0781,-2.0781,0,0,0,0,0,0,0,0,0,0,0,-2.0778,-2.0778,-2.0773,-2.0773,-2.0772,-2.0772,-2.0781,-2.0781,0,0,0,0,0,0,0,0,0,0,0,-2.0778,-2.0778,-2.0779,-2.0773,-2.0772,-2.0772,-2.0781,-2.0778,0,0,0,0,0,0,0,0,0,0,-2.0777,-2.0787,-2.0778,-2.0779,-2.0773,-2.0772,-2.0772,-2.0778,-2.0778,-2.0785,0,-2.0792,0,-2.0787,-2.0782,-2.0782,0,0,0,-2.0769,-2.0786,-2.0782,-2.0779,-2.0773,-2.0772,-2.0771,-2.0778,-2.0778,-2.0786,-2.0792,-2.0792,-2.0787,-2.0782,-2.0782,-2.0836,-2.0837,0,0,-2.0769,-2.078,-2.0781,-2.0782,-2.0783,-2.0771,-2.0771,-2.0778,-2.0786,-2.0792,-2.0792,-2.0787,-2.0782,-2.0782,-2.0836,-2.0837,0,0,0,-2.0772,-2.0781,-2.0776,-2.0782,-2.0781,-2.0771,-2.0771,-2.0785,-2.0783,-2.0792,-2.0787,-2.0782,-2.0782,-2.0836,-2.0836,-2.0869,0,0,0,-2.0772,-2.0782,-2.0776,-2.0783,-2.0781,-2.0783,-2.0779,-2.0782,-2.0783,-2.0787,-2.0782,-2.0783,-2.0835,-2.0836,-2.0867,-2.0882,0,0,0,-2.0776,-2.0783,-2.0785,-2.0784,-2.0784,-2.0783,-2.078,-2.0782,-2.078,-2.0782,-2.0783,-2.0835,-2.0836,-2.0865,-2.0879,-2.0899,0,0,0,-2.0785,-2.0812,-2.0785,-2.0815,-2.0784,-2.0804,-2.078,-2.0794,-2.08,-2.0782,-2.0835,-2.0836,-2.0865,-2.0877,-2.0898,-2.0918,-2.0928,0,0,-2.0826,-2.0818,-2.0834,-2.081,-2.0838,-2.0803,-2.0835,-2.0829,-2.0819,-2.0832,-2.0833,-2.0868,-2.0878,-2.0899,-2.0982,-2.099,0,0,0,-2.0851,-2.0863,-2.0868,-2.0875,-2.0872,-2.0872,-2.086,-2.0859,-2.0869,-2.0828,-2.0881,-2.0887,-2.0899,-2.0908,-2.0915,-2.0924,-2.0841,-2.0841,-2.0841,-2.0924,-2.0911,-2.0939,-2.0926,-2.0934,-2.0923,-2.0928,-2.0924,-2.0908,-2.0921,-2.0924,-2.0976,-2.0987,-2.0992,-2.1002,-2.0935,-2.0935,-2.0935,-2.0935,-2.0983,-2.0998,-2.0979,-2.0998,-2.0985,-2.1001,-2.0994,-2.0982,-2.0996,-2.0972,-2.0981,-2.0955,-2.1001,-2.1009,-2.0937,-2.0937,-2.0937,-2.0937,-2.0936,-2.1028,-2.1033,-2.1032,-2.1043,-2.1053,-2.1041,-2.1056,-2.1043,-2.1031,-2.1041,-2.1043,-2.1043,-2.104,-2.1044,-2.1044,-2.1044,-2.1044,-2.1044,-2.1044,-2.1074,-2.1073,-2.1086,-2.1089,-2.1093,-2.1098,-2.1091,-2.1095,-2.1096,-2.1086,-2.1086,-2.1069,-2.1009,-2.0993,-2.1047,-2.1047,-2.1046,-2.1046,-2.1046,-2.1136,-2.1121,-2.1142,-2.1147,-2.115,-2.1162,-2.1148,-2.1158,-2.116,-2.1169,-2.1151,-2.1109,-2.1099,-2.1093,-2.108,-2.1154,-2.1154,-2.1154,-2.1154,-2.1173,-2.1168,-2.1188,-2.1197,-2.1204,-2.1195,-2.1221,-2.1218,-2.1212,-2.1213,-2.1201,-2.1184,-2.1179,-2.1172,-2.1165,-2.1152,-2.1242,-2.1242,-2.1242,-2.121,-2.1206,-2.123,-2.1224,-2.1227,-2.1231,-2.1256,-2.1268,-2.1258,-2.1246,-2.1214,-2.121,-2.1181,-2.1173,-2.1156,-2.1146,-2.1122,0,0]},{"header":{"parameterUnit":"m.s-1","parameterCategory":1,"la1":30.2992,"la2":30.254,"lo1":-89.0895,"lo2":-89.0443,"dy":0.0025,"dx":0.0025,"nx":19,"ny":19,"refTime":"2026-03-27T03:00:00:Z","depth":0,"parameterNumber":3,"parameterNumberName":"V-component_of_WINDS"},"data":[0,0,0,3.7651,3.765,3.7614,3.7614,3.7555,3.7555,0,0,0,0,0,0,0,0,0,0,0,3.7655,3.7654,3.7651,3.765,3.7614,3.7614,3.7556,3.7555,0,0,0,0,0,0,0,0,0,0,0,3.7655,3.7654,3.7654,3.765,3.7614,3.7614,3.7556,3.7587,0,0,0,0,0,0,0,0,0,0,3.7624,3.7621,3.7655,3.7654,3.7649,3.7614,3.7614,3.7589,3.7585,3.7567,0,3.755,0,3.7552,3.755,3.755,0,0,0,3.7654,3.7624,3.7621,3.7653,3.7649,3.7614,3.7631,3.7587,3.7583,3.7562,3.7549,3.7547,3.7551,3.755,3.7549,3.7435,3.7434,0,0,3.7656,3.7644,3.7624,3.7618,3.7624,3.7633,3.763,3.7584,3.7569,3.7549,3.7546,3.755,3.7549,3.7549,3.7436,3.7435,0,0,0,3.7659,3.7645,3.7644,3.762,3.7615,3.7631,3.7629,3.7571,3.7572,3.7546,3.7549,3.7549,3.7548,3.7436,3.7435,3.7389,0,0,0,3.766,3.7647,3.7644,3.7636,3.7615,3.7593,3.7616,3.7575,3.757,3.7549,3.7549,3.7547,3.7437,3.7436,3.7392,3.7368,0,0,0,3.7659,3.7647,3.764,3.7636,3.762,3.7594,3.7592,3.7574,3.7572,3.755,3.7547,3.7438,3.7436,3.7395,3.7373,3.7336,0,0,0,3.7654,3.7596,3.7639,3.7576,3.762,3.7566,3.7592,3.7551,3.7527,3.7549,3.7437,3.7435,3.7396,3.7376,3.7339,3.7304,3.7288,0,0,3.7574,3.7586,3.755,3.7587,3.7523,3.7572,3.75,3.7487,3.7495,3.7454,3.7452,3.7391,3.7373,3.7337,3.7202,3.7189,0,0,0,3.7521,3.7495,3.7481,3.7459,3.745,3.7441,3.7441,3.7437,3.7404,3.7472,3.7368,3.7358,3.7337,3.732,3.731,3.7293,3.7427,3.7427,3.7428,3.739,3.7406,3.7348,3.736,3.7339,3.7342,3.7326,3.7321,3.734,3.7315,3.7303,3.722,3.72,3.7192,3.7175,3.7285,3.7285,3.7285,3.7285,3.7276,3.7242,3.7274,3.7229,3.7246,3.7208,3.721,3.7225,3.7192,3.7229,3.7212,3.7251,3.7178,3.7163,3.7282,3.7282,3.7283,3.7283,3.7283,3.7192,3.7179,3.7177,3.7149,3.7126,3.7139,3.7108,3.7123,3.7138,3.712,3.711,3.7111,3.7115,3.7115,3.7114,3.7114,3.7114,3.7114,3.7113,3.7106,3.7105,3.7078,3.7066,3.7056,3.7044,3.7049,3.7039,3.7031,3.7045,3.7045,3.7068,3.7168,3.7193,3.7109,3.711,3.711,3.7111,3.7111,3.6984,3.7015,3.6972,3.6962,3.6952,3.6928,3.695,3.6929,3.6922,3.6906,3.6934,3.7005,3.7018,3.7026,3.7047,3.693,3.693,3.693,3.693,3.6914,3.6923,3.6885,3.6868,3.6853,3.687,3.6821,3.6825,3.6833,3.6831,3.685,3.6879,3.6887,3.6895,3.6906,3.6926,3.6781,3.6781,3.6781,3.6841,3.685,3.6806,3.6817,3.6811,3.6805,3.676,3.6739,3.6755,3.6775,3.6829,3.6836,3.6883,3.6897,3.6918,3.6935,3.6972,0,0]}]]